Cosmos 1263 Rocket - Orbit

View from above orbital plane
View from above orbital plane
View from above satellite
View from above satellite

Ground track
Ground track

The orbit data is extracted from the following two-line orbital elements,

1 12389U 81033B   13170.63140418  .00019701  00000-0  44261-3 0  6903
2 12389 082.8902 089.8069 0290069 310.6834 047.0006 15.09457619654699
Epoch (UTC): 19 June 2013 15:09:13
Eccentricity: 0.0290069
inclination: 82.8902°
perigee height: 337 km
apogee height: 738 km
right ascension of ascending node: 89.8069°
argument of perigee: 310.6834°
revolutions per day: 15.09457619
mean anomaly at epoch: 47.0006°
orbit number at epoch: 65469

The dashed part of the orbit path shows where the satellite is in the earth's shadow,  

Developed and maintained by Chris Peat, Heavens-Above GmbH. Please read the updated FAQ before sending e-mail. Imprint. DLR